LRC640 MGGT-KLAX

Flight info

Callsign LRC640
Flight time N/A
Altitude 36000
Route GABEN2A GABEN UA552 VER UT61 AVALI UL655 PPE J93 ASUTA DCT AMMOR OLAAA2
Aircraft A20N/M-SDE2E3FGHIRWXY/LB1

Departure

Time 2026-04-28 14:54
Airport La Aurora International Airport (MGGT)

Arrival

Time N/A
Airport Los Angeles International Airport (KLAX)
Time Latitude Longitude Altitude Speed Heading
2026-04-28 14:47 14.58581 -90.52737 4908 ft 16 kts 198°
2026-04-28 14:48 14.58464 -90.52776 4904 ft 18 kts 200°
2026-04-28 14:48 14.58332 -90.52818 4899 ft 20 kts 198°
2026-04-28 14:48 14.58192 -90.52862 4896 ft 20 kts 197°
2026-04-28 14:48 14.58160 -90.52872 4895 ft 20 kts 197°
2026-04-28 14:49 14.58080 -90.52898 4894 ft 20 kts 197°
2026-04-28 14:49 14.58000 -90.52924 4893 ft 20 kts 198°
2026-04-28 14:49 14.57979 -90.52930 4893 ft 20 kts 197°
2026-04-28 14:49 14.57862 -90.52969 4892 ft 17 kts 197°
2026-04-28 14:50 14.57775 -90.52996 4892 ft 10 kts 197°
2026-04-28 14:50 14.57705 -90.53018 4892 ft 10 kts 198°
2026-04-28 14:50 14.57638 -90.53040 4892 ft 9 kts 198°
2026-04-28 14:50 14.57570 -90.53063 4892 ft 10 kts 197°
2026-04-28 14:51 14.57498 -90.53085 4893 ft 10 kts 196°
2026-04-28 14:51 14.57423 -90.53109 4893 ft 11 kts 197°
2026-04-28 14:51 14.57347 -90.53134 4893 ft 11 kts 197°
2026-04-28 14:51 14.57278 -90.53156 4893 ft 10 kts 198°
2026-04-28 14:52 14.57205 -90.53180 4893 ft 11 kts 197°
2026-04-28 14:52 14.57135 -90.53203 4893 ft 7 kts 198°
2026-04-28 14:52 14.57100 -90.53212 4893 ft 2 kts 186°
2026-04-28 14:52 14.57077 -90.53205 4893 ft 3 kts 149°
2026-04-28 14:53 14.57062 -90.53174 4893 ft 6 kts 83°
2026-04-28 14:53 14.57096 -90.53142 4893 ft 1 kts 17°
2026-04-28 14:53 14.57097 -90.53142 4893 ft 0 kts 17°
2026-04-28 14:53 14.57214 -90.53104 4893 ft 51 kts 18°
2026-04-28 14:54 14.57797 -90.52917 4892 ft 120 kts 17°
2026-04-28 14:54 14.58795 -90.52599 4924 ft 174 kts 18°
2026-04-28 14:54 14.59978 -90.52226 5486 ft 179 kts 18°
2026-04-28 14:54 14.61185 -90.51871 6187 ft 185 kts
2026-04-28 14:55 14.62459 -90.52045 6879 ft 189 kts 346°
2026-04-28 14:55 14.63745 -90.52442 7224 ft 201 kts 347°
2026-04-28 14:55 14.65167 -90.52753 7511 ft 215 kts 353°
2026-04-28 14:55 14.66720 -90.52903 7727 ft 235 kts
2026-04-28 14:56 14.68411 -90.52847 8028 ft 251 kts
2026-04-28 14:56 14.70201 -90.52577 8351 ft 268 kts 11°
2026-04-28 14:56 14.72114 -90.52278 8809 ft 279 kts
2026-04-28 14:56 14.74075 -90.52297 9439 ft 284 kts 355°
2026-04-28 14:57 14.76047 -90.52709 10130 ft 287 kts 345°
2026-04-28 14:57 14.77304 -90.53191 10484 ft 294 kts 338°
2026-04-28 14:57 14.79717 -90.54725 10873 ft 319 kts 322°
2026-04-28 14:57 14.81335 -90.56438 11164 ft 337 kts 310°
2026-04-28 14:58 14.82706 -90.58443 11523 ft 349 kts 306°
2026-04-28 14:58 14.84086 -90.60588 11768 ft 364 kts 306°
2026-04-28 14:58 14.85506 -90.62797 12101 ft 375 kts 306°
2026-04-28 14:58 14.86961 -90.65045 12600 ft 379 kts 307°
2026-04-28 14:59 14.88443 -90.67319 13122 ft 382 kts 307°
2026-04-28 14:59 14.89965 -90.69637 13631 ft 385 kts 307°
2026-04-28 14:59 14.91463 -90.71922 14164 ft 387 kts 307°
2026-04-28 14:59 14.92976 -90.74231 14690 ft 388 kts 307°
2026-04-28 15:00 14.94499 -90.76559 15222 ft 390 kts 307°
2026-04-28 15:00 14.95987 -90.78835 15713 ft 392 kts 307°
2026-04-28 15:00 14.97513 -90.81170 16231 ft 394 kts 307°
2026-04-28 15:00 14.99072 -90.83557 16727 ft 396 kts 308°
2026-04-28 15:01 15.00615 -90.85922 17220 ft 398 kts 308°
2026-04-28 15:01 15.02169 -90.88305 17707 ft 399 kts 308°
2026-04-28 15:01 15.03738 -90.90703 18165 ft 402 kts 308°
2026-04-28 15:01 15.05317 -90.93105 18608 ft 404 kts 308°
2026-04-28 15:02 15.06908 -90.95525 19043 ft 407 kts 308°
2026-04-28 15:02 15.08485 -90.97930 19473 ft 409 kts 308°
2026-04-28 15:02 15.10098 -91.00391 19911 ft 412 kts 308°
2026-04-28 15:02 15.11704 -91.02850 20345 ft 414 kts 308°
2026-04-28 15:03 15.13325 -91.05337 20758 ft 417 kts 308°
2026-04-28 15:03 15.14958 -91.07841 21180 ft 420 kts 308°
2026-04-28 15:03 15.16604 -91.10365 21594 ft 423 kts 308°
2026-04-28 15:03 15.18260 -91.12910 22016 ft 425 kts 308°
2026-04-28 15:04 15.19919 -91.15459 22435 ft 427 kts 308°
2026-04-28 15:04 15.21577 -91.18008 22852 ft 429 kts 308°
2026-04-28 15:04 15.23266 -91.20608 23298 ft 431 kts 308°
2026-04-28 15:04 15.24941 -91.23181 23732 ft 433 kts 308°
2026-04-28 15:05 15.26772 -91.25660 24161 ft 430 kts 316°
2026-04-28 15:05 15.28838 -91.27896 24604 ft 430 kts 318°
2026-04-28 15:05 15.30973 -91.30108 25020 ft 431 kts 319°
2026-04-28 15:05 15.33108 -91.32336 25452 ft 432 kts 318°
2026-04-28 15:06 15.35215 -91.34566 25851 ft 434 kts 318°
2026-04-28 15:06 15.37322 -91.36820 26263 ft 435 kts 317°
2026-04-28 15:06 15.39417 -91.39078 26640 ft 437 kts 317°
2026-04-28 15:06 15.41526 -91.41365 27016 ft 438 kts 317°
2026-04-28 15:07 15.43626 -91.43649 27419 ft 438 kts 317°
2026-04-28 15:07 15.45739 -91.45950 27918 ft 436 kts 317°
2026-04-28 15:07 15.47804 -91.48202 28433 ft 433 kts 317°
2026-04-28 15:07 15.49880 -91.50466 28902 ft 431 kts 317°
2026-04-28 15:08 15.51952 -91.52728 29331 ft 430 kts 317°
2026-04-28 15:08 15.54028 -91.54994 29722 ft 430 kts 317°
2026-04-28 15:08 15.56094 -91.57249 30097 ft 429 kts 317°
2026-04-28 15:08 15.58148 -91.59493 30475 ft 429 kts 317°
2026-04-28 15:09 15.60207 -91.61746 30850 ft 428 kts 317°
2026-04-28 15:09 15.62248 -91.63978 31209 ft 427 kts 317°
2026-04-28 15:09 15.64287 -91.66204 31573 ft 426 kts 317°
2026-04-28 15:09 15.66345 -91.68457 31928 ft 425 kts 317°
2026-04-28 15:10 15.68355 -91.70658 32261 ft 424 kts 317°
2026-04-28 15:10 15.70424 -91.72923 32590 ft 424 kts 317°
2026-04-28 15:10 15.72441 -91.75134 32897 ft 423 kts 317°
2026-04-28 15:10 15.74460 -91.77348 33200 ft 422 kts 317°
2026-04-28 15:11 15.76471 -91.79552 33492 ft 421 kts 317°
2026-04-28 15:11 15.78487 -91.81763 33773 ft 421 kts 317°
2026-04-28 15:11 15.80501 -91.83970 34037 ft 420 kts 317°
2026-04-28 15:11 15.82555 -91.86202 34299 ft 420 kts 317°
2026-04-28 15:12 15.84576 -91.88374 34528 ft 420 kts 317°
2026-04-28 15:12 15.86608 -91.90557 34717 ft 420 kts 317°
2026-04-28 15:12 15.88649 -91.92753 34895 ft 421 kts 317°
2026-04-28 15:12 15.90672 -91.94933 35068 ft 422 kts 317°
2026-04-28 15:13 15.92720 -91.97142 35249 ft 422 kts 317°
2026-04-28 15:13 15.94754 -91.99337 35410 ft 423 kts 316°
2026-04-28 15:13 15.96790 -92.01536 35568 ft 424 kts 316°
2026-04-28 15:13 15.98836 -92.03748 35713 ft 424 kts 316°
2026-04-28 15:14 16.00914 -92.05994 35851 ft 425 kts 316°
2026-04-28 15:14 16.02970 -92.08219 35987 ft 426 kts 316°
2026-04-28 15:14 16.05029 -92.10448 36115 ft 427 kts 316°
2026-04-28 15:15 16.09145 -92.14904 36186 ft 428 kts 316°
2026-04-28 15:15 16.13316 -92.19426 36207 ft 428 kts 316°
2026-04-28 15:16 16.17450 -92.23908 36233 ft 428 kts 316°
2026-04-28 15:16 16.21576 -92.28386 36250 ft 428 kts 317°
2026-04-28 15:17 16.25701 -92.32864 36251 ft 428 kts 317°
2026-04-28 15:17 16.29828 -92.37349 36244 ft 427 kts 317°
2026-04-28 15:18 16.33938 -92.41818 36232 ft 427 kts 317°
2026-04-28 15:18 16.38038 -92.46281 36213 ft 427 kts 317°
2026-04-28 15:19 16.42139 -92.50751 36202 ft 427 kts 317°
2026-04-28 15:19 16.46250 -92.55229 36197 ft 427 kts 317°
2026-04-28 15:20 16.50375 -92.59712 36193 ft 427 kts 317°
2026-04-28 15:20 16.54470 -92.64169 36195 ft 427 kts 317°
2026-04-28 15:21 16.58605 -92.68683 36197 ft 427 kts 317°
2026-04-28 15:21 16.62689 -92.73144 36211 ft 427 kts 317°
2026-04-28 15:22 16.66789 -92.77628 36229 ft 427 kts 317°
2026-04-28 15:22 16.70894 -92.82124 36239 ft 427 kts 317°
2026-04-28 15:23 16.74984 -92.86598 36244 ft 427 kts 317°
2026-04-28 15:23 16.79096 -92.91085 36223 ft 427 kts 317°
2026-04-28 15:24 16.83185 -92.95560 36205 ft 427 kts 317°
2026-04-28 15:24 16.87281 -93.00053 36206 ft 426 kts 317°
2026-04-28 15:25 16.91381 -93.04552 36217 ft 427 kts 317°
2026-04-28 15:25 16.95449 -93.09022 36225 ft 426 kts 317°
2026-04-28 15:26 16.99549 -93.13533 36225 ft 426 kts 317°
2026-04-28 15:26 17.03632 -93.18020 36208 ft 426 kts 317°
2026-04-28 15:27 17.07723 -93.22503 36164 ft 426 kts 317°
2026-04-28 15:27 17.11812 -93.26995 36143 ft 426 kts 317°
2026-04-28 15:28 17.15890 -93.31484 36112 ft 426 kts 317°
2026-04-28 15:28 17.19997 -93.36007 36086 ft 426 kts 317°
2026-04-28 15:29 17.24052 -93.40480 36073 ft 426 kts 317°
2026-04-28 15:29 17.28128 -93.44978 36049 ft 426 kts 317°
2026-04-28 15:30 17.32221 -93.49499 36028 ft 426 kts 318°
2026-04-28 15:30 17.36284 -93.53989 36017 ft 425 kts 318°
2026-04-28 15:31 17.40371 -93.58510 36015 ft 425 kts 318°
2026-04-28 15:31 17.44422 -93.62989 36016 ft 425 kts 317°
2026-04-28 15:32 17.48511 -93.67520 36018 ft 425 kts 317°
2026-04-28 15:32 17.52588 -93.72039 36014 ft 425 kts 317°
2026-04-28 15:33 17.56657 -93.76552 36012 ft 425 kts 318°
2026-04-28 15:33 17.60694 -93.81030 35998 ft 425 kts 317°
2026-04-28 15:34 17.64757 -93.85545 35985 ft 425 kts 318°
2026-04-28 15:34 17.68824 -93.90062 35970 ft 424 kts 318°
2026-04-28 15:35 17.72860 -93.94551 35949 ft 424 kts 318°
2026-04-28 15:35 17.78933 -94.01314 35947 ft 424 kts 318°
2026-04-28 15:36 17.82994 -94.05837 35939 ft 424 kts 318°
2026-04-28 15:36 17.87016 -94.10323 35935 ft 424 kts 318°
2026-04-28 15:37 17.91068 -94.14842 35929 ft 424 kts 318°
2026-04-28 15:37 17.95124 -94.19372 35931 ft 424 kts 318°
2026-04-28 15:38 17.99161 -94.23885 35931 ft 424 kts 318°
2026-04-28 15:38 18.03178 -94.28378 35934 ft 424 kts 318°
2026-04-28 15:39 18.07213 -94.32895 35932 ft 424 kts 318°
2026-04-28 15:39 18.11248 -94.37416 35936 ft 424 kts 318°
2026-04-28 15:40 18.15276 -94.41936 35938 ft 423 kts 318°
2026-04-28 15:40 18.19295 -94.46448 35934 ft 423 kts 318°
2026-04-28 15:41 18.23317 -94.50953 35942 ft 423 kts 318°
2026-04-28 15:41 18.27352 -94.55473 35936 ft 423 kts 318°
2026-04-28 15:42 18.31370 -94.59982 35942 ft 423 kts 318°
2026-04-28 15:42 18.35390 -94.64500 35942 ft 423 kts 318°
2026-04-28 15:43 18.39413 -94.69029 35937 ft 423 kts 318°
2026-04-28 15:43 18.43449 -94.73574 35935 ft 423 kts 318°
2026-04-28 15:44 18.47437 -94.78072 35934 ft 422 kts 318°
2026-04-28 15:44 18.51470 -94.82619 35930 ft 422 kts 318°
2026-04-28 15:45 18.55455 -94.87121 35932 ft 422 kts 318°
2026-04-28 15:45 18.59464 -94.91650 35937 ft 422 kts 318°
2026-04-28 15:46 18.63482 -94.96195 35937 ft 422 kts 318°
2026-04-28 15:46 18.67472 -95.00715 35939 ft 422 kts 318°
2026-04-28 15:47 18.71447 -95.05221 35940 ft 422 kts 318°
2026-04-28 15:47 18.75469 -95.09779 35940 ft 422 kts 318°
2026-04-28 15:48 18.79469 -95.14298 35940 ft 422 kts 318°
2026-04-28 15:48 18.83441 -95.18797 35940 ft 422 kts 317°
2026-04-28 15:49 18.87445 -95.23340 35939 ft 421 kts 317°
2026-04-28 15:49 18.91419 -95.27859 35940 ft 421 kts 318°
2026-04-28 15:50 18.95426 -95.32414 35938 ft 421 kts 317°
2026-04-28 15:50 18.99389 -95.36925 35939 ft 421 kts 317°
2026-04-28 15:51 19.03371 -95.41465 35939 ft 421 kts 317°
2026-04-28 15:51 19.07358 -95.46011 35938 ft 421 kts 317°
2026-04-28 15:52 19.11326 -95.50545 35940 ft 420 kts 317°
2026-04-28 15:52 19.15291 -95.55078 35939 ft 420 kts 317°
2026-04-28 15:53 19.19272 -95.59616 35938 ft 421 kts 317°
2026-04-28 15:53 19.23237 -95.64139 35938 ft 420 kts 317°
2026-04-28 15:54 19.27226 -95.68703 35937 ft 421 kts 317°
2026-04-28 15:54 19.31204 -95.73259 35937 ft 420 kts 317°
2026-04-28 15:55 19.35149 -95.77781 35937 ft 420 kts 317°
2026-04-28 15:55 19.39128 -95.82351 35937 ft 420 kts 316°
2026-04-28 15:56 19.43075 -95.86885 35937 ft 420 kts 317°
2026-04-28 15:56 19.47052 -95.91450 35937 ft 420 kts 317°
2026-04-28 15:57 19.51009 -95.95984 35934 ft 420 kts 316°
2026-04-28 15:57 19.54970 -96.00539 35930 ft 420 kts 316°
2026-04-28 15:58 19.58919 -96.05085 35930 ft 420 kts 316°
2026-04-28 15:58 19.62873 -96.09646 35933 ft 420 kts 316°
2026-04-28 15:59 19.66809 -96.14191 35931 ft 420 kts 316°
2026-04-28 15:59 19.70757 -96.18754 35931 ft 420 kts 316°
2026-04-28 16:00 19.74710 -96.23305 35928 ft 420 kts 316°
2026-04-28 16:00 19.78669 -96.27873 35923 ft 420 kts 316°
2026-04-28 16:01 19.82601 -96.32420 35927 ft 420 kts 316°
2026-04-28 16:01 19.86565 -96.37011 35927 ft 419 kts 316°
2026-04-28 16:02 19.90499 -96.41574 35923 ft 419 kts 316°
2026-04-28 16:02 19.94419 -96.46127 35923 ft 419 kts 316°
2026-04-28 16:03 19.98360 -96.50696 35918 ft 419 kts 316°
2026-04-28 16:03 20.02350 -96.55248 35920 ft 419 kts 316°
2026-04-28 16:04 20.06317 -96.59777 35923 ft 419 kts 316°
2026-04-28 16:04 20.10264 -96.64296 35928 ft 419 kts 316°
2026-04-28 16:05 20.14267 -96.68892 35927 ft 418 kts 316°
2026-04-28 16:05 20.18223 -96.73434 35926 ft 419 kts 316°
2026-04-28 16:06 20.22189 -96.77962 35923 ft 419 kts 316°
2026-04-28 16:06 20.26145 -96.82474 35919 ft 418 kts 316°
2026-04-28 16:07 20.30117 -96.87016 35920 ft 418 kts 316°
2026-04-28 16:08 20.36058 -96.93825 35923 ft 418 kts 316°
2026-04-28 16:08 20.40003 -96.98351 35926 ft 418 kts 315°
2026-04-28 16:09 20.45929 -97.05161 35931 ft 418 kts 315°
2026-04-28 16:10 20.51863 -97.11987 35942 ft 417 kts 315°
2026-04-28 16:10 20.57762 -97.18780 35951 ft 417 kts 315°
2026-04-28 16:11 20.65660 -97.27889 35948 ft 417 kts 315°
2026-04-28 16:12 20.71565 -97.34710 35946 ft 417 kts 315°
2026-04-28 16:13 20.77464 -97.41531 35945 ft 417 kts 315°
2026-04-28 16:14 20.85320 -97.50628 35942 ft 416 kts 315°
2026-04-28 16:15 20.93141 -97.59702 35928 ft 415 kts 315°
2026-04-28 16:15 20.97055 -97.64249 35926 ft 415 kts 315°
2026-04-28 16:16 21.02975 -97.71133 35928 ft 415 kts 315°
2026-04-28 16:17 21.08843 -97.77959 35922 ft 415 kts 315°
2026-04-28 16:17 21.12796 -97.82568 35922 ft 414 kts 315°
2026-04-28 16:18 21.16681 -97.87099 35925 ft 414 kts 315°
2026-04-28 16:18 21.20574 -97.91644 35927 ft 414 kts 315°
2026-04-28 16:19 21.24473 -97.96201 35932 ft 414 kts 314°
2026-04-28 16:19 21.28362 -98.00746 35938 ft 414 kts 315°
2026-04-28 16:20 21.32258 -98.05306 35936 ft 414 kts 315°
2026-04-28 16:20 21.36142 -98.09855 35934 ft 414 kts 314°
2026-04-28 16:21 21.40038 -98.14423 35931 ft 413 kts 314°
2026-04-28 16:21 21.43925 -98.18984 35933 ft 414 kts 314°
2026-04-28 16:22 21.47814 -98.23550 35928 ft 413 kts 314°
2026-04-28 16:22 21.51693 -98.28110 35930 ft 413 kts 314°
2026-04-28 16:23 21.55547 -98.32641 35921 ft 412 kts 314°
2026-04-28 16:23 21.59418 -98.37200 35919 ft 412 kts 314°
2026-04-28 16:24 21.63284 -98.41756 35918 ft 413 kts 314°
2026-04-28 16:24 21.67151 -98.46316 35910 ft 412 kts 314°
2026-04-28 16:25 21.71014 -98.50876 35906 ft 412 kts 314°
2026-04-28 16:25 21.74863 -98.55423 35902 ft 412 kts 314°
2026-04-28 16:26 21.78732 -98.59997 35905 ft 412 kts 314°
2026-04-28 16:26 21.82571 -98.64542 35903 ft 411 kts 314°
2026-04-28 16:27 21.86492 -98.69186 35911 ft 412 kts 314°
2026-04-28 16:28 21.92265 -98.76029 35912 ft 412 kts 313°
2026-04-28 16:28 21.96114 -98.80597 35911 ft 411 kts 313°
2026-04-28 16:29 22.01882 -98.87453 35912 ft 411 kts 313°
2026-04-28 16:30 22.07655 -98.94324 35924 ft 411 kts 313°
2026-04-28 16:30 22.11488 -98.98887 35930 ft 411 kts 313°
2026-04-28 16:31 22.15329 -99.03470 35936 ft 410 kts 313°
2026-04-28 16:31 22.19146 -99.08025 35946 ft 411 kts 313°
2026-04-28 16:32 22.23002 -99.12631 35958 ft 411 kts 313°
2026-04-28 16:32 22.28722 -99.19472 35959 ft 410 kts 313°
2026-04-28 16:33 22.31919 -99.23298 35972 ft 410 kts 313°
2026-04-28 16:33 22.36369 -99.28635 35982 ft 410 kts 313°
2026-04-28 16:34 22.40177 -99.33206 36019 ft 410 kts 313°
2026-04-28 16:34 22.43999 -99.37798 36052 ft 410 kts 313°
2026-04-28 16:35 22.47790 -99.42360 36073 ft 410 kts 313°
2026-04-28 16:35 22.51608 -99.46944 36097 ft 409 kts 313°
2026-04-28 16:36 22.55444 -99.51540 36148 ft 409 kts 312°
2026-04-28 16:36 22.59243 -99.56113 36155 ft 409 kts 312°
2026-04-28 16:37 22.63036 -99.60683 36171 ft 409 kts 312°
2026-04-28 16:38 22.68783 -99.67621 36173 ft 409 kts 312°
2026-04-28 16:38 22.72587 -99.72216 36166 ft 409 kts 312°
2026-04-28 16:39 22.76370 -99.76793 36174 ft 409 kts 311°
2026-04-28 16:39 22.80164 -99.81386 36188 ft 409 kts 312°
2026-04-28 16:40 22.83973 -99.86002 36206 ft 409 kts 311°
2026-04-28 16:40 22.87757 -99.90594 36207 ft 409 kts 311°
2026-04-28 16:41 22.91542 -99.95187 36227 ft 408 kts 311°
2026-04-28 16:41 22.95321 -99.99777 36251 ft 408 kts 311°
2026-04-28 16:42 22.99110 -100.04388 36269 ft 408 kts 311°
2026-04-28 16:42 23.02876 -100.08971 36283 ft 408 kts 311°
2026-04-28 16:43 23.06642 -100.13562 36298 ft 407 kts 311°
2026-04-28 16:43 23.10427 -100.18176 36312 ft 408 kts 311°
2026-04-28 16:44 23.14249 -100.22846 36322 ft 408 kts 311°
2026-04-28 16:44 23.18004 -100.27435 36325 ft 408 kts 311°
2026-04-28 16:45 23.21776 -100.32050 36323 ft 407 kts 311°
2026-04-28 16:45 23.25548 -100.36667 36322 ft 408 kts 310°
2026-04-28 16:46 23.29293 -100.41258 36327 ft 408 kts 311°
2026-04-28 16:46 23.33046 -100.45864 36335 ft 407 kts 310°
2026-04-28 16:47 23.36807 -100.50482 36355 ft 407 kts 310°
2026-04-28 16:47 23.40573 -100.55117 36369 ft 407 kts 310°
2026-04-28 16:48 23.44335 -100.59748 36382 ft 407 kts 310°
2026-04-28 16:48 23.48083 -100.64368 36388 ft 407 kts 310°
2026-04-28 16:49 23.51889 -100.69041 36390 ft 407 kts 310°
2026-04-28 16:49 23.55641 -100.73655 36389 ft 407 kts 310°
2026-04-28 16:50 23.59393 -100.78284 36391 ft 407 kts 310°
2026-04-28 16:50 23.63133 -100.82904 36393 ft 407 kts 310°
2026-04-28 16:51 23.66878 -100.87534 36398 ft 407 kts 310°
2026-04-28 16:51 23.70621 -100.92165 36399 ft 406 kts 309°
2026-04-28 16:52 23.74352 -100.96788 36399 ft 407 kts 309°
2026-04-28 16:52 23.78072 -101.01403 36397 ft 407 kts 309°
2026-04-28 16:53 23.81803 -101.06036 36398 ft 407 kts 309°
2026-04-28 16:53 23.85538 -101.10681 36404 ft 407 kts 310°
2026-04-28 16:54 23.89276 -101.15331 36403 ft 406 kts 310°
2026-04-28 16:54 23.92994 -101.19959 36404 ft 407 kts 309°
2026-04-28 16:55 23.96727 -101.24614 36416 ft 407 kts 310°
2026-04-28 16:55 24.00465 -101.29280 36427 ft 407 kts 309°
2026-04-28 16:56 24.04174 -101.33912 36435 ft 407 kts 309°
2026-04-28 16:56 24.07900 -101.38578 36442 ft 407 kts 309°
2026-04-28 16:57 24.11643 -101.43269 36451 ft 406 kts 309°
2026-04-28 16:57 24.15363 -101.47944 36454 ft 406 kts 308°
2026-04-28 16:58 24.18837 -101.52800 36455 ft 406 kts 306°
2026-04-28 16:58 24.22262 -101.57729 36448 ft 406 kts 306°
2026-04-28 16:59 24.25667 -101.62645 36438 ft 406 kts 305°
2026-04-28 16:59 24.29106 -101.67619 36432 ft 406 kts 305°
2026-04-28 17:00 24.32507 -101.72543 36425 ft 406 kts 305°
2026-04-28 17:00 24.35922 -101.77492 36419 ft 406 kts 305°
2026-04-28 17:01 24.39324 -101.82431 36415 ft 406 kts 305°
2026-04-28 17:01 24.42706 -101.87347 36419 ft 406 kts 305°
2026-04-28 17:02 24.46102 -101.92280 36411 ft 406 kts 305°
2026-04-28 17:02 24.49516 -101.97253 36422 ft 405 kts 305°
2026-04-28 17:03 24.54597 -102.04654 36415 ft 406 kts 305°
2026-04-28 17:03 24.57993 -102.09609 36402 ft 405 kts 305°
2026-04-28 17:04 24.63060 -102.17017 36385 ft 406 kts 305°
2026-04-28 17:05 24.68150 -102.24461 36380 ft 405 kts 304°
2026-04-28 17:06 24.73217 -102.31889 36372 ft 405 kts 304°
2026-04-28 17:06 24.78269 -102.39304 36358 ft 404 kts 304°
2026-04-28 17:07 24.81650 -102.44274 36350 ft 405 kts 304°
2026-04-28 17:07 24.84998 -102.49200 36342 ft 405 kts 304°
2026-04-28 17:08 24.88369 -102.54163 36337 ft 404 kts 304°
2026-04-28 17:08 24.91737 -102.59129 36328 ft 404 kts 304°
2026-04-28 17:09 24.95097 -102.64088 36328 ft 404 kts 304°
2026-04-28 17:09 24.98489 -102.69102 36317 ft 403 kts 304°
2026-04-28 17:10 25.01849 -102.74071 36309 ft 404 kts 304°
2026-04-28 17:10 25.05197 -102.79027 36300 ft 403 kts 303°
2026-04-28 17:11 25.08548 -102.83991 36292 ft 403 kts 303°
2026-04-28 17:11 25.11940 -102.89026 36294 ft 404 kts 303°
2026-04-28 17:12 25.15281 -102.93984 36293 ft 403 kts 303°
2026-04-28 17:12 25.18625 -102.98955 36289 ft 403 kts 303°
2026-04-28 17:13 25.21963 -103.03921 36292 ft 403 kts 303°
2026-04-28 17:13 25.25300 -103.08894 36306 ft 403 kts 303°
2026-04-28 17:14 25.28636 -103.13868 36317 ft 402 kts 303°
2026-04-28 17:14 25.31962 -103.18831 36313 ft 402 kts 303°
2026-04-28 17:15 25.35264 -103.23771 36304 ft 402 kts 303°
2026-04-28 17:15 25.38605 -103.28764 36282 ft 402 kts 303°
2026-04-28 17:16 25.41914 -103.33723 36247 ft 402 kts 303°
2026-04-28 17:16 25.45242 -103.38709 36211 ft 402 kts 303°
2026-04-28 17:17 25.48560 -103.43690 36194 ft 402 kts 303°
2026-04-28 17:17 25.51870 -103.48662 36195 ft 401 kts 303°
2026-04-28 17:18 25.55179 -103.53638 36197 ft 402 kts 303°
2026-04-28 17:18 25.58502 -103.58644 36207 ft 402 kts 302°
2026-04-28 17:19 25.61800 -103.63615 36223 ft 401 kts 302°
2026-04-28 17:19 25.65143 -103.68655 36247 ft 401 kts 302°
2026-04-28 17:20 25.67897 -103.72814 36270 ft 400 kts 302°
2026-04-28 17:20 25.71719 -103.78590 36299 ft 400 kts 302°
2026-04-28 17:21 25.75018 -103.83587 36325 ft 400 kts 302°
2026-04-28 17:22 25.79936 -103.91040 36330 ft 400 kts 302°
2026-04-28 17:22 25.83230 -103.96038 36330 ft 400 kts 302°
2026-04-28 17:23 25.88156 -104.03522 36332 ft 399 kts 302°
2026-04-28 17:23 25.91408 -104.08470 36322 ft 399 kts 301°
2026-04-28 17:24 25.94679 -104.13454 36317 ft 399 kts 301°
2026-04-28 17:24 25.97943 -104.18431 36315 ft 399 kts 301°
2026-04-28 17:25 26.02843 -104.25919 36311 ft 399 kts 302°
2026-04-28 17:26 26.06119 -104.30926 36319 ft 399 kts 301°
2026-04-28 17:26 26.09384 -104.35922 36324 ft 399 kts 301°
2026-04-28 17:27 26.12677 -104.40968 36324 ft 398 kts 301°
2026-04-28 17:27 26.15924 -104.45951 36330 ft 399 kts 301°
2026-04-28 17:28 26.19183 -104.50954 36334 ft 399 kts 301°
2026-04-28 17:28 26.24038 -104.58421 36344 ft 398 kts 301°
2026-04-28 17:29 26.27293 -104.63434 36346 ft 398 kts 301°
2026-04-28 17:30 26.32194 -104.70992 36346 ft 398 kts 301°
2026-04-28 17:30 26.37040 -104.78477 36350 ft 397 kts 301°
2026-04-28 17:31 26.41961 -104.85927 36345 ft 401 kts 307°
2026-04-28 17:32 26.46301 -104.89846 36354 ft 406 kts 319°
2026-04-28 17:32 26.48714 -104.91527 36355 ft 407 kts 321°
2026-04-28 17:32 26.53593 -104.94786 36362 ft 407 kts 321°
2026-04-28 17:33 26.58474 -104.98023 36345 ft 407 kts 321°
2026-04-28 17:33 26.62557 -105.00717 36349 ft 407 kts 321°
2026-04-28 17:34 26.65670 -105.03007 36332 ft 396 kts 312°
2026-04-28 17:34 26.67653 -105.05121 36347 ft 394 kts 308°
2026-04-28 17:34 26.71300 -105.09713 36349 ft 392 kts 300°
2026-04-28 17:35 26.74442 -105.14715 36344 ft 394 kts 300°
2026-04-28 17:35 26.77583 -105.19770 36336 ft 395 kts 299°
2026-04-28 17:36 26.80711 -105.24799 36338 ft 394 kts 299°
2026-04-28 17:36 26.83850 -105.29856 36346 ft 394 kts 299°
2026-04-28 17:37 26.86986 -105.34911 36351 ft 393 kts 299°
2026-04-28 17:37 26.90103 -105.39947 36344 ft 393 kts 299°
2026-04-28 17:38 26.93104 -105.45069 36344 ft 392 kts 297°
2026-04-28 17:38 26.96054 -105.50198 36354 ft 392 kts 297°
2026-04-28 17:39 26.99003 -105.55334 36362 ft 392 kts 297°
2026-04-28 17:40 27.03421 -105.63036 36369 ft 391 kts 297°
2026-04-28 17:40 27.06389 -105.68214 36378 ft 391 kts 296°
2026-04-28 17:41 27.09339 -105.73373 36380 ft 390 kts 296°
2026-04-28 17:41 27.12326 -105.78605 36376 ft 391 kts 297°
2026-04-28 17:42 27.15272 -105.83762 36385 ft 390 kts 296°
2026-04-28 17:42 27.18194 -105.88893 36376 ft 390 kts 296°
2026-04-28 17:43 27.21120 -105.94029 36371 ft 390 kts 296°
2026-04-28 17:43 27.24043 -105.99171 36371 ft 389 kts 296°
2026-04-28 17:44 27.26967 -106.04320 36366 ft 389 kts 296°
2026-04-28 17:44 27.29881 -106.09452 36367 ft 389 kts 296°
2026-04-28 17:45 27.32779 -106.14572 36360 ft 389 kts 296°
2026-04-28 17:45 27.35683 -106.19701 36373 ft 389 kts 296°
2026-04-28 17:46 27.38597 -106.24859 36366 ft 389 kts 296°
2026-04-28 17:46 27.41500 -106.29998 36368 ft 389 kts 296°
2026-04-28 17:47 27.44411 -106.35162 36379 ft 389 kts 296°
2026-04-28 17:47 27.47327 -106.40333 36373 ft 389 kts 296°
2026-04-28 17:48 27.50221 -106.45477 36374 ft 389 kts 295°
2026-04-28 17:48 27.53095 -106.50597 36380 ft 388 kts 296°
2026-04-28 17:49 27.55998 -106.55768 36391 ft 388 kts 296°
2026-04-28 17:49 27.58874 -106.60894 36396 ft 388 kts 296°
2026-04-28 17:50 27.61765 -106.66054 36410 ft 388 kts 295°
2026-04-28 17:50 27.64672 -106.71251 36417 ft 388 kts 295°
2026-04-28 17:51 27.67546 -106.76395 36424 ft 388 kts 295°
2026-04-28 17:51 27.70412 -106.81538 36432 ft 388 kts 295°
2026-04-28 17:52 27.73299 -106.86716 36455 ft 387 kts 295°
2026-04-28 17:52 27.77604 -106.94455 36479 ft 388 kts 295°
2026-04-28 17:53 27.80467 -106.99605 36485 ft 387 kts 295°
2026-04-28 17:53 27.83335 -107.04766 36487 ft 387 kts 295°
2026-04-28 17:54 27.86219 -107.09967 36488 ft 387 kts 295°
2026-04-28 17:54 27.89069 -107.15121 36483 ft 387 kts 295°
2026-04-28 17:55 27.91943 -107.20320 36480 ft 387 kts 295°
2026-04-28 17:55 27.94807 -107.25505 36485 ft 388 kts 295°
2026-04-28 17:56 27.97661 -107.30685 36487 ft 387 kts 295°
2026-04-28 17:56 28.00515 -107.35860 36486 ft 387 kts 295°
2026-04-28 17:57 28.03362 -107.41038 36488 ft 387 kts 295°
2026-04-28 17:57 28.06228 -107.46255 36490 ft 388 kts 294°
2026-04-28 17:58 28.09058 -107.51424 36485 ft 387 kts 295°
2026-04-28 17:58 28.11950 -107.56710 36486 ft 387 kts 295°
2026-04-28 17:59 28.14795 -107.61904 36491 ft 388 kts 295°
2026-04-28 17:59 28.17796 -107.67058 36495 ft 388 kts 296°
2026-04-28 18:00 28.20864 -107.72113 36495 ft 388 kts 297°
2026-04-28 18:00 28.23916 -107.77153 36491 ft 388 kts 296°
2026-04-28 18:01 28.26967 -107.82203 36490 ft 387 kts 296°
2026-04-28 18:01 28.30017 -107.87256 36488 ft 388 kts 296°
2026-04-28 18:02 28.33072 -107.92329 36482 ft 388 kts 297°
2026-04-28 18:02 28.36115 -107.97385 36485 ft 388 kts 296°
2026-04-28 18:03 28.39155 -108.02441 36481 ft 387 kts 296°
2026-04-28 18:03 28.42177 -108.07478 36473 ft 387 kts 296°
2026-04-28 18:04 28.45212 -108.12540 36465 ft 387 kts 296°
2026-04-28 18:04 28.48232 -108.17583 36446 ft 387 kts 296°
2026-04-28 18:05 28.50754 -108.21807 36439 ft 386 kts 296°
2026-04-28 18:05 28.54270 -108.27692 36435 ft 386 kts 296°
2026-04-28 18:06 28.57269 -108.32722 36424 ft 387 kts 295°
2026-04-28 18:06 28.60297 -108.37809 36401 ft 387 kts 295°
2026-04-28 18:07 28.63302 -108.42868 36377 ft 386 kts 296°
2026-04-28 18:07 28.66307 -108.47930 36362 ft 386 kts 296°
2026-04-28 18:08 28.69318 -108.52992 36349 ft 386 kts 296°
2026-04-28 18:08 28.72311 -108.58034 36329 ft 386 kts 296°
2026-04-28 18:09 28.75312 -108.63110 36311 ft 386 kts 296°
2026-04-28 18:09 28.78335 -108.68230 36285 ft 386 kts 295°
2026-04-28 18:10 28.81315 -108.73285 36255 ft 386 kts 295°
2026-04-28 18:10 28.84295 -108.78352 36219 ft 385 kts 295°
2026-04-28 18:11 28.87279 -108.83425 36213 ft 386 kts 295°
2026-04-28 18:11 28.88766 -108.85960 36211 ft 386 kts 294°